Time,TemperatureF,DewpointF,PressureIn,WindDirection,WindDirectionDegrees,WindSpeedMPH,WindSpeedGustMPH,Humidity,HourlyPrecipIn,Conditions,Clouds,dailyrainin,SoftwareType,DateUTC
2013-05-04 00:00:00,57.5,47.0,30.06,SSW,205,5.0,17.0,68,0.00,,SKC,0.00,VWS V14.01,2013-05-04 04:00:00,
2013-05-04 00:01:00,57.5,47.0,30.06,SSW,213,3.0,5.0,68,0.00,,SKC,0.00,VWS V14.01,2013-05-04 04:01:00,
2013-05-04 00:06:00,57.4,46.9,30.06,WNW,283,1.0,8.0,68,0.00,,SKC,0.00,VWS V14.01,2013-05-04 04:06:00,
2013-05-04 00:11:00,57.4,46.9,30.06,ENE,60,1.0,8.0,68,0.00,,SKC,0.00,VWS V14.01,2013-05-04 04:11:00,
2013-05-04 00:16:00,57.2,46.8,30.06,NW,310,3.0,8.0,68,0.00,,SKC,0.00,VWS V14.01,2013-05-04 04:16:00,
2013-05-04 00:21:00,57.2,46.4,30.06,SSE,159,6.0,13.0,67,0.00,,SKC,0.00,VWS V14.01,2013-05-04 04:21:00,
2013-05-04 00:26:00,57.2,46.0,30.05,SSW,198,6.0,13.0,66,0.00,,SKC,0.00,VWS V14.01,2013-05-04 04:26:00,
2013-05-04 00:30:00,57.2,46.0,30.05,WNW,294,2.0,13.0,66,0.00,,SKC,0.00,VWS V14.01,2013-05-04 04:30:00,
2013-05-04 00:31:00,57.1,45.5,30.05,NW,316,2.0,3.0,65,0.00,,SKC,0.00,VWS V14.01,2013-05-04 04:31:00,
2013-05-04 00:36:00,57.1,45.5,30.05,South,181,1.0,12.0,65,0.00,,SKC,0.00,VWS V14.01,2013-05-04 04:36:00,
2013-05-04 00:41:00,57.0,45.4,30.05,WSW,258,5.0,12.0,65,0.00,,SKC,0.00,VWS V14.01,2013-05-04 04:41:00,
2013-05-04 00:46:00,56.8,45.6,30.05,West,276,2.0,12.0,66,0.00,,SKC,0.00,VWS V14.01,2013-05-04 04:46:00,
2013-05-04 00:51:00,56.7,45.5,30.05,WNW,303,2.0,12.0,66,0.00,,SKC,0.00,VWS V14.01,2013-05-04 04:51:00,
2013-05-04 00:56:00,56.5,45.3,30.06,SSW,195,2.0,12.0,66,0.00,,SKC,0.00,VWS V14.01,2013-05-04 04:56:00,
2013-05-04 01:00:00,56.4,45.2,30.05,SSW,200,1.0,12.0,66,0.00,,SKC,0.00,VWS V14.01,2013-05-04 05:00:00,
2013-05-04 01:01:00,56.4,45.6,30.05,SW,217,3.0,3.0,67,0.00,,SKC,0.00,VWS V14.01,2013-05-04 05:01:00,
2013-05-04 01:06:00,56.1,45.3,30.05,South,186,2.0,4.0,67,0.00,,SKC,0.00,VWS V14.01,2013-05-04 05:06:00,
2013-05-04 01:11:00,55.9,45.1,30.05,SW,233,3.0,9.0,67,0.00,,SKC,0.00,VWS V14.01,2013-05-04 05:11:00,
2013-05-04 01:16:00,55.8,45.0,30.05,NE,40,1.0,9.0,67,0.00,,SKC,0.00,VWS V14.01,2013-05-04 05:16:00,
2013-05-04 01:21:00,55.7,45.3,30.05,South,172,0.0,9.0,68,0.00,,SKC,0.00,VWS V14.01,2013-05-04 05:21:00,
2013-05-04 01:26:00,55.5,45.1,30.05,SSW,208,1.0,9.0,68,0.00,,SKC,0.00,VWS V14.01,2013-05-04 05:26:00,
2013-05-04 01:30:00,55.4,45.4,30.05,South,176,2.0,9.0,69,0.00,,SKC,0.00,VWS V14.01,2013-05-04 05:30:00,
2013-05-04 01:31:00,55.3,44.9,30.05,SSW,204,0.0,2.0,68,0.00,,SKC,0.00,VWS V14.01,2013-05-04 05:31:00,
2013-05-04 01:36:00,55.3,44.9,30.05,SW,232,2.0,5.0,68,0.00,,SKC,0.00,VWS V14.01,2013-05-04 05:36:00,
2013-05-04 01:41:00,55.2,45.2,30.05,South,184,2.0,8.0,69,0.00,,SKC,0.00,VWS V14.01,2013-05-04 05:41:00,
2013-05-04 01:46:00,55.1,45.1,30.05,SSW,208,3.0,8.0,69,0.00,,SKC,0.00,VWS V14.01,2013-05-04 05:46:00,
2013-05-04 01:51:00,55.0,45.0,30.05,SSW,194,1.0,8.0,69,0.00,,SKC,0.00,VWS V14.01,2013-05-04 05:51:00,
2013-05-04 01:56:00,54.9,45.3,30.05,South,177,1.0,8.0,70,0.00,,SKC,0.00,VWS V14.01,2013-05-04 05:56:00,
2013-05-04 02:00:00,54.8,45.2,30.04,SW,225,2.0,8.0,70,0.00,,SKC,0.00,VWS V14.01,2013-05-04 06:00:00,
2013-05-04 02:01:00,54.8,44.8,30.04,SW,217,2.0,2.0,69,0.00,,SKC,0.00,VWS V14.01,2013-05-04 06:01:00,
2013-05-04 02:06:00,54.7,45.1,30.04,SW,222,1.0,4.0,70,0.00,,SKC,0.00,VWS V14.01,2013-05-04 06:06:00,
2013-05-04 02:11:00,54.6,44.7,30.03,SE,130,0.0,5.0,69,0.00,,SKC,0.00,VWS V14.01,2013-05-04 06:11:00,
2013-05-04 02:16:00,54.6,45.0,30.04,South,176,0.0,5.0,70,0.00,,SKC,0.00,VWS V14.01,2013-05-04 06:16:00,
2013-05-04 02:21:00,54.4,44.5,30.03,South,174,2.0,5.0,69,0.00,,SKC,0.00,VWS V14.01,2013-05-04 06:21:00,
2013-05-04 02:26:00,54.3,44.4,30.03,SSE,158,0.0,6.0,69,0.00,,SKC,0.00,VWS V14.01,2013-05-04 06:26:00,
2013-05-04 02:30:00,54.2,44.6,30.03,SE,135,1.0,6.0,70,0.00,,SKC,0.00,VWS V14.01,2013-05-04 06:30:00,
2013-05-04 02:31:00,54.2,44.6,30.03,SSE,166,1.0,1.0,70,0.00,,SKC,0.00,VWS V14.01,2013-05-04 06:31:00,
2013-05-04 02:36:00,54.0,44.5,30.03,SW,233,2.0,3.0,70,0.00,,SKC,0.00,VWS V14.01,2013-05-04 06:36:00,
2013-05-04 02:41:00,53.8,44.3,30.03,SSW,192,2.0,3.0,70,0.00,,SKC,0.00,VWS V14.01,2013-05-04 06:41:00,
2013-05-04 02:46:00,53.7,44.2,30.03,SSW,200,1.0,3.0,70,0.00,,SKC,0.00,VWS V14.01,2013-05-04 06:46:00,
2013-05-04 02:51:00,53.6,43.7,30.03,SSW,211,0.0,5.0,69,0.00,,SKC,0.00,VWS V14.01,2013-05-04 06:51:00,
2013-05-04 02:56:00,53.5,43.6,30.03,SSW,198,0.0,5.0,69,0.00,,SKC,0.00,VWS V14.01,2013-05-04 06:56:00,
2013-05-04 03:00:00,53.4,43.5,30.03,SSW,204,4.0,5.0,69,0.00,,SKC,0.00,VWS V14.01,2013-05-04 07:00:00,
2013-05-04 03:01:00,53.4,43.1,30.03,WSW,248,2.0,4.0,68,0.00,,SKC,0.00,VWS V14.01,2013-05-04 07:01:00,
2013-05-04 03:06:00,53.3,43.4,30.03,SSW,204,1.0,8.0,69,0.00,,SKC,0.00,VWS V14.01,2013-05-04 07:06:00,
2013-05-04 03:11:00,53.2,42.9,30.03,SSW,200,1.0,10.0,68,0.00,,SKC,0.00,VWS V14.01,2013-05-04 07:11:00,
2013-05-04 03:16:00,53.0,42.7,30.03,SSW,195,1.0,10.0,68,0.00,,SKC,0.00,VWS V14.01,2013-05-04 07:16:00,
2013-05-04 03:21:00,52.9,43.0,30.03,SSW,207,2.0,10.0,69,0.00,,SKC,0.00,VWS V14.01,2013-05-04 07:21:00,
2013-05-04 03:26:00,52.7,42.8,30.03,SSW,200,0.0,10.0,69,0.00,,SKC,0.00,VWS V14.01,2013-05-04 07:26:00,
2013-05-04 03:30:00,52.6,42.7,30.03,SSE,165,3.0,10.0,69,0.00,,SKC,0.00,VWS V14.01,2013-05-04 07:30:00,
2013-05-04 03:31:00,52.5,42.6,30.03,South,181,2.0,3.0,69,0.00,,SKC,0.00,VWS V14.01,2013-05-04 07:31:00,
2013-05-04 03:36:00,52.4,42.5,30.03,SSW,206,1.0,6.0,69,0.00,,SKC,0.00,VWS V14.01,2013-05-04 07:36:00,
2013-05-04 03:41:00,52.3,42.5,30.03,SSW,204,0.0,7.0,69,0.00,,SKC,0.00,VWS V14.01,2013-05-04 07:41:00,
2013-05-04 03:46:00,52.1,42.2,30.03,SSW,194,2.0,7.0,69,0.00,,SKC,0.00,VWS V14.01,2013-05-04 07:46:00,
2013-05-04 03:51:00,52.0,42.5,30.03,SSW,210,1.0,7.0,70,0.00,,SKC,0.00,VWS V14.01,2013-05-04 07:51:00,
2013-05-04 03:56:00,51.8,42.0,30.03,South,181,3.0,7.0,69,0.00,,SKC,0.00,VWS V14.01,2013-05-04 07:56:00,
2013-05-04 04:00:00,51.6,41.8,30.03,South,173,2.0,7.0,69,0.00,,SKC,0.00,VWS V14.01,2013-05-04 08:00:00,
2013-05-04 04:01:00,51.6,41.8,30.03,SW,221,3.0,3.0,69,0.00,,SKC,0.00,VWS V14.01,2013-05-04 08:01:00,
2013-05-04 04:06:00,51.4,41.6,30.03,SSW,203,3.0,3.0,69,0.00,,SKC,0.00,VWS V14.01,2013-05-04 08:06:00,
2013-05-04 04:11:00,51.4,41.2,30.03,SSW,195,2.0,4.0,68,0.00,,SKC,0.00,VWS V14.01,2013-05-04 08:11:00,
2013-05-04 04:16:00,51.3,40.7,30.03,SSW,208,1.0,4.0,67,0.00,,SKC,0.00,VWS V14.01,2013-05-04 08:16:00,
2013-05-04 04:21:00,51.2,40.2,30.03,South,172,2.0,4.0,66,0.00,,SKC,0.00,VWS V14.01,2013-05-04 08:21:00,
2013-05-04 04:26:00,51.1,40.2,30.03,SW,232,2.0,4.0,66,0.00,,SKC,0.00,VWS V14.01,2013-05-04 08:26:00,
2013-05-04 04:30:00,50.9,40.0,30.03,South,181,0.0,4.0,66,0.00,,SKC,0.00,VWS V14.01,2013-05-04 08:30:00,
2013-05-04 04:31:00,50.9,40.0,30.03,South,181,2.0,2.0,66,0.00,,SKC,0.00,VWS V14.01,2013-05-04 08:31:00,
2013-05-04 04:36:00,50.6,39.3,30.03,SSW,197,2.0,9.0,65,0.00,,SKC,0.00,VWS V14.01,2013-05-04 08:36:00,
2013-05-04 04:41:00,50.5,39.2,30.03,SSW,195,1.0,9.0,65,0.00,,SKC,0.00,VWS V14.01,2013-05-04 08:41:00,
2013-05-04 04:46:00,50.2,39.3,30.03,SSW,211,2.0,9.0,66,0.00,,SKC,0.00,VWS V14.01,2013-05-04 08:46:00,
2013-05-04 04:51:00,50.1,38.8,30.03,SSW,193,1.0,9.0,65,0.00,,SKC,0.00,VWS V14.01,2013-05-04 08:51:00,
2013-05-04 04:56:00,49.8,38.9,30.03,South,172,3.0,9.0,66,0.00,,SKC,0.00,VWS V14.01,2013-05-04 08:56:00,
2013-05-04 05:00:00,49.6,38.7,30.03,SSW,204,2.0,9.0,66,0.00,,SKC,0.00,VWS V14.01,2013-05-04 09:00:00,
2013-05-04 05:01:00,49.6,38.7,30.03,SW,225,3.0,3.0,66,0.00,,SKC,0.00,VWS V14.01,2013-05-04 09:01:00,
2013-05-04 05:06:00,49.4,38.1,30.03,ENE,75,3.0,5.0,65,0.00,,SKC,0.00,VWS V14.01,2013-05-04 09:06:00,
2013-05-04 05:11:00,49.2,38.0,30.03,SSW,197,2.0,6.0,65,0.00,,SKC,0.00,VWS V14.01,2013-05-04 09:11:00,
2013-05-04 05:16:00,49.1,37.9,30.04,SSW,194,1.0,6.0,65,0.00,,SKC,0.00,VWS V14.01,2013-05-04 09:16:00,
2013-05-04 05:21:00,48.9,37.7,30.04,SSW,205,2.0,6.0,65,0.00,,SKC,0.00,VWS V14.01,2013-05-04 09:21:00,
2013-05-04 05:26:00,48.8,38.0,30.04,SSW,194,3.0,6.0,66,0.00,,SKC,0.00,VWS V14.01,2013-05-04 09:26:00,
2013-05-04 05:30:00,48.9,38.1,30.04,WSW,251,0.0,6.0,66,0.00,,SKC,0.00,VWS V14.01,2013-05-04 09:30:00,
2013-05-04 05:31:00,48.8,38.0,30.04,South,183,1.0,1.0,66,0.00,,SKC,0.00,VWS V14.01,2013-05-04 09:31:00,
2013-05-04 05:36:00,48.9,38.1,30.04,SSW,211,1.0,3.0,66,0.00,,SKC,0.00,VWS V14.01,2013-05-04 09:36:00,
2013-05-04 05:41:00,48.8,37.2,30.04,SW,221,1.0,5.0,64,0.00,,SKC,0.00,VWS V14.01,2013-05-04 09:41:00,
2013-05-04 05:46:00,48.8,37.2,30.04,SW,217,0.0,5.0,64,0.00,,SKC,0.00,VWS V14.01,2013-05-04 09:46:00,
2013-05-04 05:51:00,48.8,36.0,30.04,SW,219,2.0,5.0,61,0.00,,SKC,0.00,VWS V14.01,2013-05-04 09:51:00,
2013-05-04 05:56:00,48.9,35.6,30.04,SSW,193,2.0,6.0,60,0.00,,SKC,0.00,VWS V14.01,2013-05-04 09:56:00,
2013-05-04 06:00:00,49.0,36.2,30.04,SSW,205,1.0,6.0,61,0.00,,SKC,0.00,VWS V14.01,2013-05-04 10:00:00,
2013-05-04 06:01:00,49.0,36.2,30.04,West,263,3.0,3.0,61,0.00,,SKC,0.00,VWS V14.01,2013-05-04 10:01:00,
2013-05-04 06:06:00,49.1,36.7,30.04,SW,225,3.0,3.0,62,0.00,,SKC,0.00,VWS V14.01,2013-05-04 10:06:00,
2013-05-04 06:11:00,49.1,37.5,30.04,SW,219,2.0,4.0,64,0.00,,SKC,0.00,VWS V14.01,2013-05-04 10:11:00,
2013-05-04 06:16:00,49.0,38.2,30.04,SSW,210,1.0,4.0,66,0.00,,SKC,0.00,VWS V14.01,2013-05-04 10:16:00,
2013-05-04 06:21:00,48.9,38.4,30.04,SW,215,2.0,6.0,67,0.00,,SKC,0.00,VWS V14.01,2013-05-04 10:21:00,
2013-05-04 06:26:00,48.8,39.1,30.04,SSW,204,2.0,6.0,69,0.00,,SKC,0.00,VWS V14.01,2013-05-04 10:26:00,
2013-05-04 06:30:00,48.8,39.5,30.04,West,273,2.0,8.0,70,0.00,,SKC,0.00,VWS V14.01,2013-05-04 10:30:00,
2013-05-04 06:31:00,48.8,39.8,30.04,WSW,246,2.0,3.0,71,0.00,,SKC,0.00,VWS V14.01,2013-05-04 10:31:00,
2013-05-04 06:36:00,48.8,39.8,30.04,South,170,3.0,4.0,71,0.00,,SKC,0.00,VWS V14.01,2013-05-04 10:36:00,
2013-05-04 06:41:00,48.7,40.1,30.04,SSW,210,2.0,4.0,72,0.00,,SKC,0.00,VWS V14.01,2013-05-04 10:41:00,
2013-05-04 06:46:00,48.7,40.5,30.04,South,187,1.0,5.0,73,0.00,,SKC,0.00,VWS V14.01,2013-05-04 10:46:00,
2013-05-04 06:51:00,48.6,40.7,30.04,SW,217,1.0,7.0,74,0.00,,SKC,0.00,VWS V14.01,2013-05-04 10:51:00,
2013-05-04 06:56:00,48.6,40.7,30.04,SW,217,2.0,7.0,74,0.00,,SKC,0.00,VWS V14.01,2013-05-04 10:56:00,
2013-05-04 07:00:00,48.6,41.0,30.04,South,172,0.0,7.0,75,0.00,,SKC,0.00,VWS V14.01,2013-05-04 11:00:00,
2013-05-04 07:01:00,48.6,41.0,30.03,South,172,1.0,1.0,75,0.00,,SKC,0.00,VWS V14.01,2013-05-04 11:01:00,
2013-05-04 07:06:00,48.7,41.5,30.03,SSW,205,4.0,5.0,76,0.00,,SKC,0.00,VWS V14.01,2013-05-04 11:06:00,
2013-05-04 07:11:00,48.9,42.0,30.04,SE,143,5.0,6.0,77,0.00,,SKC,0.00,VWS V14.01,2013-05-04 11:11:00,
2013-05-04 07:16:00,49.4,42.2,30.04,SW,231,1.0,7.0,76,0.00,,SKC,0.00,VWS V14.01,2013-05-04 11:16:00,
2013-05-04 07:21:00,49.8,42.9,30.04,SSW,192,2.0,11.0,77,0.00,,SKC,0.00,VWS V14.01,2013-05-04 11:21:00,
2013-05-04 07:26:00,50.4,43.1,30.04,SSW,210,0.0,11.0,76,0.00,,SKC,0.00,VWS V14.01,2013-05-04 11:26:00,
2013-05-04 07:30:00,50.6,43.3,30.04,WSW,243,4.0,11.0,76,0.00,,SKC,0.00,VWS V14.01,2013-05-04 11:30:00,
2013-05-04 07:31:00,50.6,43.3,30.04,SSW,211,1.0,4.0,76,0.00,,SKC,0.00,VWS V14.01,2013-05-04 11:31:00,
2013-05-04 07:36:00,50.4,43.1,30.04,SSE,158,2.0,6.0,76,0.00,,SKC,0.00,VWS V14.01,2013-05-04 11:36:00,
2013-05-04 07:41:00,50.2,42.9,30.04,South,177,2.0,7.0,76,0.00,,SKC,0.00,VWS V14.01,2013-05-04 11:41:00,
2013-05-04 07:46:00,50.2,43.3,30.04,SSW,200,2.0,7.0,77,0.00,,SKC,0.00,VWS V14.01,2013-05-04 11:46:00,
2013-05-04 07:51:00,50.4,43.5,30.04,SW,236,2.0,7.0,77,0.00,,SKC,0.00,VWS V14.01,2013-05-04 11:51:00,
2013-05-04 07:56:00,50.2,42.9,30.04,SW,217,3.0,10.0,76,0.00,,SKC,0.00,VWS V14.01,2013-05-04 11:56:00,
2013-05-04 08:00:00,49.9,43.0,30.04,SW,221,2.0,10.0,77,0.00,,SKC,0.00,VWS V14.01,2013-05-04 12:00:00,
2013-05-04 08:01:00,49.9,43.0,30.04,SSW,212,6.0,7.0,77,0.00,,SKC,0.00,VWS V14.01,2013-05-04 12:01:00,
2013-05-04 08:07:00,49.8,43.2,30.04,SW,224,3.0,7.0,78,0.00,,SKC,0.00,VWS V14.01,2013-05-04 12:07:00,
2013-05-04 08:11:00,49.9,43.3,30.04,SW,219,4.0,7.0,78,0.00,,SKC,0.00,VWS V14.01,2013-05-04 12:11:00,
2013-05-04 08:17:00,50.1,43.8,30.03,South,173,3.0,7.0,79,0.00,,SKC,0.00,VWS V14.01,2013-05-04 12:17:00,
2013-05-04 08:22:00,50.5,43.9,30.03,SW,235,4.0,9.0,78,0.00,,SKC,0.00,VWS V14.01,2013-05-04 12:22:00,
2013-05-04 08:27:00,51.0,44.0,30.03,SSE,159,0.0,9.0,77,0.00,,SKC,0.00,VWS V14.01,2013-05-04 12:27:00,
2013-05-04 08:30:00,51.3,44.3,30.03,SSE,149,10.0,10.0,77,0.00,,SKC,0.00,VWS V14.01,2013-05-04 12:30:00,
2013-05-04 08:32:00,51.5,44.5,30.03,SSW,205,2.0,11.0,77,0.00,,SKC,0.00,VWS V14.01,2013-05-04 12:32:00,
2013-05-04 08:37:00,51.7,44.7,30.03,SSW,203,1.0,11.0,77,0.00,,SKC,0.00,VWS V14.01,2013-05-04 12:37:00,
2013-05-04 08:42:00,52.1,44.8,30.03,SSW,203,6.0,11.0,76,0.00,,SKC,0.00,VWS V14.01,2013-05-04 12:42:00,
2013-05-04 08:47:00,52.5,45.5,30.03,SW,231,0.0,11.0,77,0.00,,SKC,0.00,VWS V14.01,2013-05-04 12:47:00,
2013-05-04 08:52:00,53.0,45.7,30.03,SSE,158,1.0,11.0,76,0.00,,SKC,0.00,VWS V14.01,2013-05-04 12:52:00,
2013-05-04 08:57:00,53.3,45.9,30.03,SSE,152,3.0,11.0,76,0.00,,SKC,0.00,VWS V14.01,2013-05-04 12:57:00,
2013-05-04 09:00:00,53.5,45.8,30.03,SSW,201,2.0,11.0,75,0.00,,SKC,0.00,VWS V14.01,2013-05-04 13:00:00,
2013-05-04 09:02:00,53.6,46.2,30.03,SSW,197,4.0,4.0,76,0.00,,SKC,0.00,VWS V14.01,2013-05-04 13:02:00,
2013-05-04 09:03:00,53.7,46.3,30.04,North,356,0.0,4.0,76,0.00,,SKC,0.00,VWS V14.01,2013-05-04 13:03:00,
2013-05-04 09:08:00,54.0,45.9,30.03,SSW,193,0.0,7.0,74,0.00,,SKC,0.00,VWS V14.01,2013-05-04 13:08:00,
2013-05-04 09:13:00,54.1,46.4,30.03,WSW,246,1.0,7.0,75,0.00,,SKC,0.00,VWS V14.01,2013-05-04 13:13:00,
2013-05-04 09:18:00,54.2,46.1,30.03,SSE,152,2.0,12.0,74,0.00,,SKC,0.00,VWS V14.01,2013-05-04 13:18:00,
2013-05-04 09:23:00,54.3,46.2,30.03,SSW,211,3.0,12.0,74,0.00,,SKC,0.00,VWS V14.01,2013-05-04 13:23:00,
2013-05-04 09:28:00,54.3,45.8,30.03,South,191,5.0,12.0,73,0.00,,SKC,0.00,VWS V14.01,2013-05-04 13:28:00,
2013-05-04 09:30:00,54.3,45.8,30.03,SW,217,8.0,12.0,73,0.00,,SKC,0.00,VWS V14.01,2013-05-04 13:30:00,
2013-05-04 09:33:00,54.2,46.5,30.03,South,170,1.0,8.0,75,0.00,,SKC,0.00,VWS V14.01,2013-05-04 13:33:00,
2013-05-04 09:38:00,54.3,46.6,30.03,SSW,197,2.0,12.0,75,0.00,,SKC,0.00,VWS V14.01,2013-05-04 13:38:00,
2013-05-04 09:43:00,54.2,46.1,30.03,South,184,4.0,12.0,74,0.00,,SKC,0.00,VWS V14.01,2013-05-04 13:43:00,
2013-05-04 09:48:00,54.1,46.0,30.03,SSW,201,7.0,12.0,74,0.00,,SKC,0.00,VWS V14.01,2013-05-04 13:48:00,
2013-05-04 09:53:00,54.2,46.5,30.03,South,190,1.0,12.0,75,0.00,,SKC,0.00,VWS V14.01,2013-05-04 13:53:00,
2013-05-04 09:58:00,54.2,46.5,30.03,SW,235,1.0,12.0,75,0.00,,SKC,0.00,VWS V14.01,2013-05-04 13:58:00,
2013-05-04 10:00:00,54.2,46.5,30.03,SW,221,3.0,12.0,75,0.00,,SKC,0.00,VWS V14.01,2013-05-04 14:00:00,
2013-05-04 10:03:00,54.2,46.5,30.03,SSW,198,7.0,9.0,75,0.00,,SKC,0.00,VWS V14.01,2013-05-04 14:03:00,
2013-05-04 10:08:00,54.3,46.2,30.03,South,173,3.0,10.0,74,0.00,,SKC,0.00,VWS V14.01,2013-05-04 14:08:00,
2013-05-04 10:13:00,54.7,46.9,30.03,SW,225,4.0,10.0,75,0.00,,SKC,0.00,VWS V14.01,2013-05-04 14:13:00,
2013-05-04 10:18:00,55.0,46.5,30.03,SW,232,2.0,10.0,73,0.00,,SKC,0.00,VWS V14.01,2013-05-04 14:18:00,
2013-05-04 10:23:00,55.3,46.4,30.03,NE,45,10.0,10.0,72,0.00,,SKC,0.00,VWS V14.01,2013-05-04 14:23:00,
2013-05-04 10:28:00,55.3,47.2,30.03,WNW,284,2.0,11.0,74,0.00,,SKC,0.00,VWS V14.01,2013-05-04 14:28:00,
2013-05-04 10:30:00,55.4,46.9,30.03,SSW,204,2.0,11.0,73,0.00,,SKC,0.00,VWS V14.01,2013-05-04 14:30:00,
2013-05-04 10:33:00,55.4,46.5,30.03,South,177,4.0,11.0,72,0.00,,SKC,0.00,VWS V14.01,2013-05-04 14:33:00,
2013-05-04 10:38:00,55.4,46.5,30.03,SSE,148,5.0,11.0,72,0.00,,SKC,0.00,VWS V14.01,2013-05-04 14:38:00,
2013-05-04 10:43:00,55.5,47.0,30.03,SSE,155,2.0,11.0,73,0.00,,SKC,0.00,VWS V14.01,2013-05-04 14:43:00,
2013-05-04 10:48:00,56.3,48.1,30.03,WSW,258,5.0,11.0,74,0.00,,SKC,0.00,VWS V14.01,2013-05-04 14:48:00,
2013-05-04 10:53:00,56.5,47.2,30.03,WSW,248,3.0,11.0,71,0.00,,SKC,0.00,VWS V14.01,2013-05-04 14:53:00,
2013-05-04 10:58:00,56.4,46.8,30.03,SE,146,3.0,12.0,70,0.00,,SKC,0.00,VWS V14.01,2013-05-04 14:58:00,
2013-05-04 11:00:00,56.3,47.4,30.03,SW,224,3.0,12.0,72,0.00,,SKC,0.00,VWS V14.01,2013-05-04 15:00:00,
2013-05-04 11:03:00,56.4,47.1,30.03,West,271,1.0,5.0,71,0.00,,SKC,0.00,VWS V14.01,2013-05-04 15:03:00,
2013-05-04 11:08:00,56.2,46.9,30.03,ENE,70,7.0,13.0,71,0.00,,SKC,0.00,VWS V14.01,2013-05-04 15:08:00,
2013-05-04 11:13:00,56.3,47.0,30.03,WNW,291,2.0,13.0,71,0.00,,SKC,0.00,VWS V14.01,2013-05-04 15:13:00,
2013-05-04 11:18:00,56.3,47.0,30.03,South,187,3.0,13.0,71,0.00,,SKC,0.00,VWS V14.01,2013-05-04 15:18:00,
2013-05-04 11:23:00,56.8,47.9,30.03,South,191,3.0,13.0,72,0.00,,SKC,0.00,VWS V14.01,2013-05-04 15:23:00,
2013-05-04 11:28:00,57.0,47.3,30.03,SSW,204,2.0,13.0,70,0.00,,SKC,0.00,VWS V14.01,2013-05-04 15:28:00,
2013-05-04 11:30:00,57.0,47.3,30.03,SSW,207,4.0,13.0,70,0.00,,SKC,0.00,VWS V14.01,2013-05-04 15:30:00,
2013-05-04 11:33:00,56.8,47.1,30.03,SSW,198,6.0,12.0,70,0.00,,SKC,0.00,VWS V14.01,2013-05-04 15:33:00,
2013-05-04 11:38:00,56.7,47.4,30.03,WNW,284,2.0,12.0,71,0.00,,SKC,0.00,VWS V14.01,2013-05-04 15:38:00,
2013-05-04 11:43:00,56.6,47.3,30.03,WSW,242,7.0,16.0,71,0.00,,SKC,0.00,VWS V14.01,2013-05-04 15:43:00,
2013-05-04 11:48:00,56.8,47.9,30.03,NE,53,2.0,16.0,72,0.00,,SKC,0.00,VWS V14.01,2013-05-04 15:48:00,
2013-05-04 11:53:00,57.3,48.0,30.03,WSW,238,8.0,16.0,71,0.00,,SKC,0.00,VWS V14.01,2013-05-04 15:53:00,
2013-05-04 11:58:00,57.8,47.7,30.03,SSW,203,5.0,16.0,69,0.00,,SKC,0.00,VWS V14.01,2013-05-04 15:58:00,
2013-05-04 12:00:00,57.7,48.4,30.02,SSW,203,3.0,16.0,71,0.00,,SKC,0.00,VWS V14.01,2013-05-04 16:00:00,
2013-05-04 12:03:00,57.7,47.6,30.02,SW,219,2.0,9.0,69,0.00,,SKC,0.00,VWS V14.01,2013-05-04 16:03:00,
2013-05-04 12:08:00,57.8,48.1,30.02,SSE,162,2.0,11.0,70,0.00,,SKC,0.00,VWS V14.01,2013-05-04 16:08:00,
2013-05-04 12:13:00,57.9,48.2,30.01,SSW,207,5.0,15.0,70,0.00,,SKC,0.00,VWS V14.01,2013-05-04 16:13:00,
2013-05-04 12:18:00,58.4,48.3,30.01,SW,225,2.0,15.0,69,0.00,,SKC,0.00,VWS V14.01,2013-05-04 16:18:00,
2013-05-04 12:23:00,58.3,47.8,30.01,ENE,71,2.0,15.0,68,0.00,,SKC,0.00,VWS V14.01,2013-05-04 16:23:00,
2013-05-04 12:28:00,58.8,49.8,30.00,SSE,150,5.0,15.0,72,0.00,,SKC,0.00,VWS V14.01,2013-05-04 16:28:00,
2013-05-04 12:30:00,59.1,50.1,30.00,SW,236,5.0,15.0,72,0.00,,SKC,0.00,VWS V14.01,2013-05-04 16:30:00,
2013-05-04 12:33:00,59.4,48.5,30.00,SW,219,10.0,15.0,67,0.00,,SKC,0.00,VWS V14.01,2013-05-04 16:33:00,
2013-05-04 12:38:00,59.4,48.8,30.00,SW,231,3.0,15.0,68,0.00,,SKC,0.00,VWS V14.01,2013-05-04 16:38:00,
2013-05-04 12:43:00,59.1,48.6,30.00,South,173,6.0,15.0,68,0.00,,SKC,0.00,VWS V14.01,2013-05-04 16:43:00,
2013-05-04 12:48:00,59.0,48.1,30.00,WSW,243,3.0,15.0,67,0.00,,SKC,0.00,VWS V14.01,2013-05-04 16:48:00,
2013-05-04 12:53:00,59.0,48.1,30.00,SW,231,5.0,15.0,67,0.00,,SKC,0.00,VWS V14.01,2013-05-04 16:53:00,
2013-05-04 12:58:00,58.4,47.9,30.00,SW,217,7.0,15.0,68,0.00,,SKC,0.00,VWS V14.01,2013-05-04 16:58:00,
2013-05-04 13:00:00,58.2,48.1,30.00,South,186,8.0,15.0,69,0.00,,SKC,0.00,VWS V14.01,2013-05-04 17:00:00,
2013-05-04 13:03:00,57.8,47.3,29.99,SSE,165,6.0,17.0,68,0.00,,SKC,0.00,VWS V14.01,2013-05-04 17:03:00,
2013-05-04 13:08:00,57.4,47.3,30.00,West,266,3.0,17.0,69,0.00,,SKC,0.00,VWS V14.01,2013-05-04 17:08:00,
2013-05-04 13:13:00,57.5,47.8,30.00,SSW,193,3.0,17.0,70,0.00,,SKC,0.00,VWS V14.01,2013-05-04 17:13:00,
2013-05-04 13:18:00,57.6,47.9,29.99,SW,214,1.0,17.0,70,0.00,,SKC,0.00,VWS V14.01,2013-05-04 17:18:00,
2013-05-04 13:23:00,57.9,48.2,30.00,South,187,5.0,17.0,70,0.00,,SKC,0.00,VWS V14.01,2013-05-04 17:23:00,
2013-05-04 13:28:00,58.0,47.9,30.00,South,181,1.0,17.0,69,0.00,,SKC,0.00,VWS V14.01,2013-05-04 17:28:00,
2013-05-04 13:30:00,58.2,48.8,30.00,SE,129,2.0,17.0,71,0.00,,SKC,0.00,VWS V14.01,2013-05-04 17:30:00,
2013-05-04 13:33:00,58.6,48.5,30.00,WSW,249,6.0,14.0,69,0.00,,SKC,0.00,VWS V14.01,2013-05-04 17:33:00,
2013-05-04 13:38:00,58.4,48.3,30.00,South,174,10.0,14.0,69,0.00,,SKC,0.00,VWS V14.01,2013-05-04 17:38:00,
2013-05-04 13:43:00,58.2,48.1,30.00,SW,224,4.0,14.0,69,0.00,,SKC,0.00,VWS V14.01,2013-05-04 17:43:00,
2013-05-04 13:48:00,57.9,47.8,30.00,SSW,193,4.0,14.0,69,0.00,,SKC,0.00,VWS V14.01,2013-05-04 17:48:00,
2013-05-04 13:53:00,58.0,48.3,29.99,East,101,2.0,14.0,70,0.00,,SKC,0.00,VWS V14.01,2013-05-04 17:53:00,
2013-05-04 13:58:00,58.3,47.8,29.99,SW,236,5.0,14.0,68,0.00,,SKC,0.00,VWS V14.01,2013-05-04 17:58:00,
2013-05-04 14:00:00,58.2,48.1,29.99,SSW,200,1.0,14.0,69,0.00,,SKC,0.00,VWS V14.01,2013-05-04 18:00:00,
2013-05-04 14:03:00,58.1,48.0,29.99,South,180,4.0,10.0,69,0.00,,SKC,0.00,VWS V14.01,2013-05-04 18:03:00,
2013-05-04 14:08:00,57.7,48.4,29.99,SSW,203,6.0,10.0,71,0.00,,SKC,0.00,VWS V14.01,2013-05-04 18:08:00,
2013-05-04 14:13:00,57.5,47.8,29.99,ENE,69,2.0,10.0,70,0.00,,SKC,0.00,VWS V14.01,2013-05-04 18:13:00,
2013-05-04 14:18:00,57.4,48.1,29.99,South,187,4.0,10.0,71,0.00,,SKC,0.00,VWS V14.01,2013-05-04 18:18:00,
2013-05-04 14:23:00,57.4,48.1,29.99,South,187,8.0,11.0,71,0.00,,SKC,0.00,VWS V14.01,2013-05-04 18:23:00,
2013-05-04 14:28:00,57.4,47.7,29.99,SSW,204,10.0,11.0,70,0.00,,SKC,0.00,VWS V14.01,2013-05-04 18:28:00,
2013-05-04 14:30:00,57.2,47.9,29.99,SW,215,9.0,11.0,71,0.00,,SKC,0.00,VWS V14.01,2013-05-04 18:30:00,
2013-05-04 14:33:00,57.0,48.1,29.99,SW,232,6.0,9.0,72,0.00,,SKC,0.00,VWS V14.01,2013-05-04 18:33:00,
2013-05-04 14:38:00,56.8,47.9,29.99,SW,217,9.0,11.0,72,0.00,,SKC,0.00,VWS V14.01,2013-05-04 18:38:00,
2013-05-04 14:43:00,56.4,48.2,29.99,SW,217,4.0,11.0,74,0.00,,SKC,0.00,VWS V14.01,2013-05-04 18:43:00,
2013-05-04 14:48:00,56.3,48.1,29.99,WSW,239,3.0,12.0,74,0.00,,SKC,0.00,VWS V14.01,2013-05-04 18:48:00,
2013-05-04 14:53:00,56.5,48.3,29.99,SSW,198,4.0,12.0,74,0.00,,SKC,0.00,VWS V14.01,2013-05-04 18:53:00,
2013-05-04 14:58:00,56.3,48.1,29.99,SW,233,4.0,12.0,74,0.00,,SKC,0.00,VWS V14.01,2013-05-04 18:58:00,
2013-05-04 15:00:00,56.2,48.4,29.98,SSW,203,2.0,12.0,75,0.00,,SKC,0.00,VWS V14.01,2013-05-04 19:00:00,
2013-05-04 15:03:00,56.3,47.8,29.99,SSW,201,4.0,7.0,73,0.00,,SKC,0.00,VWS V14.01,2013-05-04 19:03:00,
2013-05-04 15:08:00,55.9,47.4,29.98,SW,221,4.0,9.0,73,0.00,,SKC,0.00,VWS V14.01,2013-05-04 19:08:00,
2013-05-04 15:13:00,55.7,47.5,29.98,South,176,4.0,10.0,74,0.00,,SKC,0.00,VWS V14.01,2013-05-04 19:13:00,
2013-05-04 15:18:00,55.8,48.0,29.98,East,82,0.0,10.0,75,0.00,,SKC,0.00,VWS V14.01,2013-05-04 19:18:00,
2013-05-04 15:23:00,55.9,48.1,29.98,WNW,290,0.0,10.0,75,0.00,,SKC,0.00,VWS V14.01,2013-05-04 19:23:00,
2013-05-04 15:28:00,56.0,47.8,29.98,SSW,210,3.0,10.0,74,0.00,,SKC,0.00,VWS V14.01,2013-05-04 19:28:00,
2013-05-04 15:30:00,56.0,48.2,29.97,SSW,193,3.0,10.0,75,0.00,,SKC,0.00,VWS V14.01,2013-05-04 19:30:00,
2013-05-04 15:33:00,55.9,47.7,29.97,SSE,165,3.0,8.0,74,0.00,,SKC,0.00,VWS V14.01,2013-05-04 19:33:00,
2013-05-04 15:38:00,55.7,47.9,29.97,South,180,3.0,8.0,75,0.00,,SKC,0.00,VWS V14.01,2013-05-04 19:38:00,
2013-05-04 15:43:00,55.4,48.0,29.97,SW,226,5.0,8.0,76,0.00,,SKC,0.00,VWS V14.01,2013-05-04 19:43:00,
2013-05-04 15:48:00,55.3,47.9,29.97,SSW,197,4.0,8.0,76,0.00,,SKC,0.00,VWS V14.01,2013-05-04 19:48:00,
2013-05-04 15:53:00,55.2,47.8,29.97,SW,224,4.0,8.0,76,0.00,,SKC,0.00,VWS V14.01,2013-05-04 19:53:00,
2013-05-04 15:58:00,55.0,47.2,29.97,SW,231,3.0,8.0,75,0.00,,SKC,0.00,VWS V14.01,2013-05-04 19:58:00,
2013-05-04 16:00:00,54.9,47.5,29.97,SSE,158,3.0,8.0,76,0.00,,SKC,0.00,VWS V14.01,2013-05-04 20:00:00,
2013-05-04 16:03:00,54.8,47.4,29.97,SSW,203,3.0,5.0,76,0.00,,SKC,0.00,VWS V14.01,2013-05-04 20:03:00,
2013-05-04 16:08:00,54.7,47.6,29.96,SW,217,1.0,6.0,77,0.00,,SKC,0.00,VWS V14.01,2013-05-04 20:08:00,
2013-05-04 16:13:00,54.8,47.0,29.96,SSW,207,3.0,10.0,75,0.00,,SKC,0.00,VWS V14.01,2013-05-04 20:13:00,
2013-05-04 16:18:00,54.9,47.5,29.97,South,190,2.0,10.0,76,0.00,,SKC,0.00,VWS V14.01,2013-05-04 20:18:00,
2013-05-04 16:23:00,54.8,47.4,29.97,South,169,1.0,10.0,76,0.00,,SKC,0.00,VWS V14.01,2013-05-04 20:23:00,
2013-05-04 16:28:00,54.7,47.3,29.97,WSW,248,4.0,10.0,76,0.00,,SKC,0.00,VWS V14.01,2013-05-04 20:28:00,
2013-05-04 16:30:00,54.7,47.3,29.97,South,181,2.0,10.0,76,0.00,,SKC,0.00,VWS V14.01,2013-05-04 20:30:00,
2013-05-04 16:33:00,54.7,47.3,29.97,SW,235,7.0,10.0,76,0.00,,SKC,0.00,VWS V14.01,2013-05-04 20:33:00,
2013-05-04 16:38:00,54.6,46.8,29.97,SSW,201,4.0,10.0,75,0.00,,SKC,0.00,VWS V14.01,2013-05-04 20:38:00,
2013-05-04 16:43:00,54.3,46.9,29.97,SSW,192,3.0,10.0,76,0.00,,SKC,0.00,VWS V14.01,2013-05-04 20:43:00,
2013-05-04 16:48:00,54.2,46.8,29.97,SSW,205,3.0,10.0,76,0.00,,SKC,0.00,VWS V14.01,2013-05-04 20:48:00,
2013-05-04 16:53:00,54.1,47.1,29.97,SSW,193,6.0,10.0,77,0.00,,SKC,0.00,VWS V14.01,2013-05-04 20:53:00,
2013-05-04 16:58:00,54.0,47.0,29.97,South,174,2.0,10.0,77,0.00,,SKC,0.00,VWS V14.01,2013-05-04 20:58:00,
2013-05-04 17:00:00,54.0,47.0,29.97,SSW,204,2.0,10.0,77,0.00,,SKC,0.00,VWS V14.01,2013-05-04 21:00:00,
2013-05-04 17:03:00,53.9,46.9,29.97,SSW,198,3.0,8.0,77,0.00,,SKC,0.00,VWS V14.01,2013-05-04 21:03:00,
2013-05-04 17:08:00,53.7,47.0,29.98,South,188,4.0,8.0,78,0.00,,SKC,0.00,VWS V14.01,2013-05-04 21:08:00,
2013-05-04 17:13:00,53.6,47.3,29.98,South,177,0.0,8.0,79,0.00,,SKC,0.00,VWS V14.01,2013-05-04 21:13:00,
2013-05-04 17:18:00,53.8,47.5,29.98,WSW,246,5.0,8.0,79,0.00,,SKC,0.00,VWS V14.01,2013-05-04 21:18:00,
2013-05-04 17:23:00,54.0,47.3,29.97,WSW,238,4.0,8.0,78,0.00,,SKC,0.00,VWS V14.01,2013-05-04 21:23:00,
2013-05-04 17:28:00,54.0,47.3,29.97,SSW,195,2.0,8.0,78,0.00,,SKC,0.00,VWS V14.01,2013-05-04 21:28:00,
2013-05-04 17:30:00,54.0,47.3,29.97,WSW,239,1.0,8.0,78,0.00,,SKC,0.00,VWS V14.01,2013-05-04 21:30:00,
2013-05-04 17:33:00,53.9,47.2,29.97,SW,222,2.0,5.0,78,0.00,,SKC,0.00,VWS V14.01,2013-05-04 21:33:00,
2013-05-04 17:38:00,53.8,47.5,29.97,SW,226,3.0,5.0,79,0.00,,SKC,0.00,VWS V14.01,2013-05-04 21:38:00,
2013-05-04 17:43:00,53.8,47.1,29.96,South,190,6.0,7.0,78,0.00,,SKC,0.00,VWS V14.01,2013-05-04 21:43:00,
2013-05-04 17:48:00,53.8,47.1,29.96,South,187,4.0,7.0,78,0.00,,SKC,0.00,VWS V14.01,2013-05-04 21:48:00,
2013-05-04 17:53:00,54.0,47.3,29.95,South,186,3.0,8.0,78,0.00,,SKC,0.00,VWS V14.01,2013-05-04 21:53:00,
2013-05-04 17:58:00,54.1,47.4,29.95,SSE,166,1.0,8.0,78,0.00,,SKC,0.00,VWS V14.01,2013-05-04 21:58:00,
2013-05-04 18:00:00,54.2,47.5,29.95,SW,232,6.0,8.0,78,0.00,,SKC,0.00,VWS V14.01,2013-05-04 22:00:00,
2013-05-04 18:03:00,54.4,47.7,29.95,WSW,242,2.0,6.0,78,0.00,,SKC,0.00,VWS V14.01,2013-05-04 22:03:00,
2013-05-04 18:08:00,54.5,47.8,29.95,South,188,3.0,9.0,78,0.00,,SKC,0.00,VWS V14.01,2013-05-04 22:08:00,
2013-05-04 18:13:00,54.7,48.3,29.95,West,273,2.0,9.0,79,0.00,,SKC,0.00,VWS V14.01,2013-05-04 22:13:00,
2013-05-04 18:18:00,54.7,48.0,29.95,South,174,2.0,9.0,78,0.00,,SKC,0.00,VWS V14.01,2013-05-04 22:18:00,
2013-05-04 18:23:00,54.7,48.3,29.95,SW,221,2.0,9.0,79,0.00,,SKC,0.00,VWS V14.01,2013-05-04 22:23:00,
2013-05-04 18:28:00,54.7,48.7,29.95,SSW,203,2.0,9.0,80,0.00,,SKC,0.00,VWS V14.01,2013-05-04 22:28:00,
2013-05-04 18:30:00,54.6,48.6,29.95,SSE,166,2.0,9.0,80,0.00,,SKC,0.00,VWS V14.01,2013-05-04 22:30:00,
2013-05-04 18:33:00,54.5,48.8,29.95,SSW,194,1.0,3.0,81,0.00,,SKC,0.00,VWS V14.01,2013-05-04 22:33:00,
2013-05-04 18:38:00,54.3,48.6,29.95,South,188,7.0,8.0,81,0.00,,SKC,0.00,VWS V14.01,2013-05-04 22:38:00,
2013-05-04 18:43:00,54.2,48.5,29.95,WSW,250,3.0,8.0,81,0.00,,SKC,0.00,VWS V14.01,2013-05-04 22:43:00,
2013-05-04 18:48:00,54.2,48.2,29.95,SSW,211,6.0,10.0,80,0.00,,SKC,0.00,VWS V14.01,2013-05-04 22:48:00,
2013-05-04 18:53:00,54.3,48.3,29.95,South,179,1.0,10.0,80,0.00,,SKC,0.00,VWS V14.01,2013-05-04 22:53:00,
2013-05-04 18:58:00,54.5,48.5,29.95,SW,215,2.0,10.0,80,0.00,,SKC,0.00,VWS V14.01,2013-05-04 22:58:00,
2013-05-04 19:00:00,54.6,48.2,29.94,NE,53,3.0,10.0,79,0.00,,SKC,0.00,VWS V14.01,2013-05-04 23:00:00,
2013-05-04 19:03:00,54.7,48.3,29.94,SSW,198,2.0,7.0,79,0.00,,SKC,0.00,VWS V14.01,2013-05-04 23:03:00,
2013-05-04 19:08:00,54.9,48.2,29.94,SSW,207,1.0,9.0,78,0.00,,SKC,0.00,VWS V14.01,2013-05-04 23:08:00,
2013-05-04 19:13:00,54.9,47.8,29.94,SSW,210,1.0,9.0,77,0.00,,SKC,0.00,VWS V14.01,2013-05-04 23:13:00,
2013-05-04 19:18:00,55.0,47.9,29.94,SW,224,0.0,9.0,77,0.00,,SKC,0.00,VWS V14.01,2013-05-04 23:18:00,
2013-05-04 19:23:00,55.1,47.7,29.94,SE,129,7.0,9.0,76,0.00,,SKC,0.00,VWS V14.01,2013-05-04 23:23:00,
2013-05-04 19:28:00,55.2,47.8,29.95,SSW,204,2.0,9.0,76,0.00,,SKC,0.00,VWS V14.01,2013-05-04 23:28:00,
2013-05-04 19:30:00,55.1,47.7,29.95,SW,221,0.0,9.0,76,0.00,,SKC,0.00,VWS V14.01,2013-05-04 23:30:00,
2013-05-04 19:33:00,55.1,48.0,29.95,SW,224,1.0,2.0,77,0.00,,SKC,0.00,VWS V14.01,2013-05-04 23:33:00,
2013-05-04 19:38:00,54.9,47.5,29.94,SSW,198,2.0,4.0,76,0.00,,SKC,0.00,VWS V14.01,2013-05-04 23:38:00,
2013-05-04 19:43:00,54.9,47.8,29.94,SW,231,0.0,5.0,77,0.00,,SKC,0.00,VWS V14.01,2013-05-04 23:43:00,
2013-05-04 19:48:00,54.7,47.6,29.94,SSW,197,2.0,5.0,77,0.00,,SKC,0.00,VWS V14.01,2013-05-04 23:48:00,
2013-05-04 19:53:00,54.6,47.5,29.95,SSW,199,2.0,5.0,77,0.00,,SKC,0.00,VWS V14.01,2013-05-04 23:53:00,
2013-05-04 19:58:00,54.4,47.3,29.95,SSW,200,1.0,5.0,77,0.00,,SKC,0.00,VWS V14.01,2013-05-04 23:58:00,
2013-05-04 20:00:00,54.3,47.6,29.94,SSE,162,0.0,5.0,78,0.00,,SKC,0.00,VWS V14.01,2013-05-05 00:00:00,
2013-05-04 20:03:00,54.2,47.5,29.95,SSW,197,0.0,3.0,78,0.00,,SKC,0.00,VWS V14.01,2013-05-05 00:03:00,
2013-05-04 20:08:00,54.0,47.3,29.95,SSW,200,2.0,5.0,78,0.00,,SKC,0.00,VWS V14.01,2013-05-05 00:08:00,
2013-05-04 20:13:00,53.7,47.3,29.95,SSW,198,1.0,5.0,79,0.00,,SKC,0.00,VWS V14.01,2013-05-05 00:13:00,
2013-05-04 20:18:00,53.6,46.9,29.96,SW,215,2.0,5.0,78,0.00,,SKC,0.00,VWS V14.01,2013-05-05 00:18:00,
2013-05-04 20:23:00,53.6,47.3,29.96,ESE,121,2.0,5.0,79,0.00,,SKC,0.00,VWS V14.01,2013-05-05 00:23:00,
2013-05-04 20:28:00,53.5,47.2,29.95,SSW,197,0.0,5.0,79,0.00,,SKC,0.00,VWS V14.01,2013-05-05 00:28:00,
2013-05-04 20:30:00,53.5,46.8,29.95,SSW,197,1.0,6.0,78,0.00,,SKC,0.00,VWS V14.01,2013-05-05 00:30:00,
2013-05-04 20:33:00,53.4,46.7,29.95,SW,222,2.0,3.0,78,0.00,,SKC,0.00,VWS V14.01,2013-05-05 00:33:00,
2013-05-04 20:38:00,53.4,46.7,29.95,SSW,212,2.0,3.0,78,0.00,,SKC,0.00,VWS V14.01,2013-05-05 00:38:00,
2013-05-04 20:43:00,53.5,47.2,29.96,SSW,204,1.0,4.0,79,0.00,,SKC,0.00,VWS V14.01,2013-05-05 00:43:00,
2013-05-04 20:48:00,53.4,47.1,29.96,SSW,204,0.0,4.0,79,0.00,,SKC,0.00,VWS V14.01,2013-05-05 00:48:00,
2013-05-04 20:53:00,53.2,46.9,29.96,South,179,0.0,4.0,79,0.00,,SKC,0.00,VWS V14.01,2013-05-05 00:53:00,
2013-05-04 20:58:00,53.2,46.9,29.96,WSW,250,0.0,4.0,79,0.00,,SKC,0.00,VWS V14.01,2013-05-05 00:58:00,
2013-05-04 21:00:00,53.1,46.8,29.96,SSW,208,0.0,4.0,79,0.00,,SKC,0.00,VWS V14.01,2013-05-05 01:00:00,
2013-05-04 21:03:00,53.1,47.1,29.96,SSW,207,1.0,2.0,80,0.00,,SKC,0.00,VWS V14.01,2013-05-05 01:03:00,
2013-05-04 21:08:00,53.0,47.0,29.97,WSW,257,1.0,3.0,80,0.00,,SKC,0.00,VWS V14.01,2013-05-05 01:08:00,
2013-05-04 21:13:00,53.1,46.8,29.97,WSW,250,2.0,7.0,79,0.00,,SKC,0.00,VWS V14.01,2013-05-05 01:13:00,
2013-05-04 21:18:00,53.2,47.2,29.97,South,177,1.0,7.0,80,0.00,,SKC,0.00,VWS V14.01,2013-05-05 01:18:00,
2013-05-04 21:23:00,53.1,47.4,29.97,SSW,210,1.0,7.0,81,0.00,,SKC,0.00,VWS V14.01,2013-05-05 01:23:00,
2013-05-04 21:28:00,52.9,47.6,29.97,SW,221,0.0,7.0,82,0.00,,SKC,0.00,VWS V14.01,2013-05-05 01:28:00,
2013-05-04 21:30:00,52.8,47.8,29.97,SSW,208,1.0,7.0,83,0.00,,SKC,0.00,VWS V14.01,2013-05-05 01:30:00,
2013-05-04 21:33:00,52.6,47.9,29.98,SW,221,2.0,2.0,84,0.00,,SKC,0.00,VWS V14.01,2013-05-05 01:33:00,
2013-05-04 21:38:00,52.2,47.8,29.98,South,186,0.0,2.0,85,0.01,,SKC,0.01,VWS V14.01,2013-05-05 01:38:00,
2013-05-04 21:43:00,51.8,48.1,29.98,SSW,212,1.0,2.0,87,0.01,,SKC,0.01,VWS V14.01,2013-05-05 01:43:00,
2013-05-04 21:48:00,51.4,47.7,29.98,South,187,1.0,2.0,87,0.01,,SKC,0.01,VWS V14.01,2013-05-05 01:48:00,
2013-05-04 21:53:00,51.2,47.8,29.98,South,187,0.0,2.0,88,0.02,,SKC,0.02,VWS V14.01,2013-05-05 01:53:00,
2013-05-04 21:58:00,51.0,47.9,29.98,South,187,1.0,2.0,89,0.04,,SKC,0.04,VWS V14.01,2013-05-05 01:58:00,
2013-05-04 22:00:00,50.9,48.1,29.99,South,187,1.0,2.0,90,0.05,,SKC,0.05,VWS V14.01,2013-05-05 02:00:00,
2013-05-04 22:03:00,50.8,48.3,29.99,South,187,0.0,1.0,91,0.05,,SKC,0.05,VWS V14.01,2013-05-05 02:03:00,
2013-05-04 22:08:00,50.6,48.4,30.00,SSW,195,1.0,2.0,92,0.07,,SKC,0.07,VWS V14.01,2013-05-05 02:08:00,
2013-05-04 22:13:00,50.4,48.2,30.01,SSW,208,1.0,3.0,92,0.08,,SKC,0.08,VWS V14.01,2013-05-05 02:13:00,
2013-05-04 22:18:00,50.3,48.1,30.00,SE,141,0.0,3.0,92,0.09,,SKC,0.09,VWS V14.01,2013-05-05 02:18:00,
2013-05-04 22:23:00,50.3,48.4,30.00,SE,141,0.0,3.0,93,0.10,,SKC,0.10,VWS V14.01,2013-05-05 02:23:00,
2013-05-04 22:28:00,50.3,48.4,30.00,SE,141,0.0,3.0,93,0.10,,SKC,0.10,VWS V14.01,2013-05-05 02:28:00,
2013-05-04 22:30:00,50.3,48.4,30.00,SE,141,0.0,3.0,93,0.10,,SKC,0.10,VWS V14.01,2013-05-05 02:30:00,
2013-05-04 22:33:00,50.2,48.3,30.00,SE,141,0.0,0.0,93,0.10,,SKC,0.10,VWS V14.01,2013-05-05 02:33:00,
2013-05-04 22:38:00,50.2,48.3,30.00,SE,141,0.0,0.0,93,0.11,,SKC,0.11,VWS V14.01,2013-05-05 02:38:00,
2013-05-04 22:43:00,50.1,48.4,30.00,SW,219,1.0,1.0,94,0.11,,SKC,0.11,VWS V14.01,2013-05-05 02:43:00,
2013-05-04 22:48:00,50.0,48.3,30.00,SSE,155,0.0,3.0,94,0.11,,SKC,0.11,VWS V14.01,2013-05-05 02:48:00,
2013-05-04 22:53:00,49.9,48.2,29.99,SSW,200,0.0,3.0,94,0.12,,SKC,0.12,VWS V14.01,2013-05-05 02:53:00,
2013-05-04 22:58:00,50.0,48.3,29.99,ESE,114,1.0,3.0,94,0.12,,SKC,0.12,VWS V14.01,2013-05-05 02:58:00,
2013-05-04 23:00:00,50.0,48.6,29.99,ESE,114,0.0,3.0,95,0.12,,SKC,0.12,VWS V14.01,2013-05-05 03:00:00,
2013-05-04 23:03:00,50.0,48.6,29.98,ESE,114,0.0,0.0,95,0.07,,SKC,0.12,VWS V14.01,2013-05-05 03:03:00,
2013-05-04 23:08:00,50.0,48.6,29.98,ESE,114,0.0,1.0,95,0.08,,SKC,0.13,VWS V14.01,2013-05-05 03:08:00,
2013-05-04 23:13:00,50.0,48.6,29.98,ESE,114,0.0,1.0,95,0.08,,SKC,0.13,VWS V14.01,2013-05-05 03:13:00,
2013-05-04 23:18:00,50.0,48.6,29.99,SSE,165,1.0,2.0,95,0.08,,SKC,0.13,VWS V14.01,2013-05-05 03:18:00,
2013-05-04 23:23:00,49.9,48.5,29.99,SSE,159,0.0,2.0,95,0.09,,SKC,0.14,VWS V14.01,2013-05-05 03:23:00,
2013-05-04 23:28:00,49.9,48.5,29.99,SSE,155,1.0,2.0,95,0.09,,SKC,0.14,VWS V14.01,2013-05-05 03:28:00,
2013-05-04 23:30:00,49.9,48.5,29.99,SSE,155,0.0,2.0,95,0.09,,SKC,0.14,VWS V14.01,2013-05-05 03:30:00,
2013-05-04 23:33:00,49.9,48.5,29.98,SSE,155,0.0,0.0,95,0.04,,SKC,0.14,VWS V14.01,2013-05-05 03:33:00,
2013-05-04 23:38:00,49.9,48.5,29.98,SSE,155,0.0,2.0,95,0.04,,SKC,0.14,VWS V14.01,2013-05-05 03:38:00,
2013-05-04 23:43:00,49.8,48.4,29.97,NE,55,1.0,4.0,95,0.04,,SKC,0.14,VWS V14.01,2013-05-05 03:43:00,
2013-05-04 23:48:00,50.0,48.3,29.97,SSW,200,1.0,4.0,94,0.04,,SKC,0.14,VWS V14.01,2013-05-05 03:48:00,
2013-05-04 23:53:00,50.4,48.5,29.97,SSW,211,1.0,4.0,93,0.04,,SKC,0.14,VWS V14.01,2013-05-05 03:53:00,
2013-05-04 23:58:00,50.4,48.5,29.96,SSW,211,0.0,4.0,93,0.05,,SKC,0.15,VWS V14.01,2013-05-05 03:58:00,